Stations météo

réclame
Mon MeteoGroup
Uppsala, Suède (2458): Température de l'air & dewpoint: 17.05.2018 22:00:00 - 23.05.2018 22:00:00 (CEST)Uppsala, Suède (2458): Vitesse du vent & gusts: 17.05.2018 22:00:00 - 23.05.2018 22:00:00 (CEST)Uppsala, Suède (2458): Direction du vent: 17.05.2018 22:00:00 - 23.05.2018 22:00:00 (CEST)Uppsala, Suède (2458): reduced air pressure: 17.05.2018 22:00:00 - 23.05.2018 22:00:00 (CEST)Uppsala, Suède (2458): visibility: 17.05.2018 22:00:00 - 23.05.2018 22:00:00 (CEST)Uppsala, Suède (2458): Quantités de précipitations: 17.05.2018 22:00:00 - 23.05.2018 22:00:00 (CEST)
Date & Time tt [°C] td [°C] ff [km/h] ff [knt] fx [km/h] fx [knt] dd ppp [hPa] vv [km] rr [mm]
23.05.2018 22:00:00 10,5 0,8 7 4 11 6 NNE 1029,7 50 0,0
23.05.2018 21:00:00 12,9 2,2 7 4 25 14 NE 1029,1 40 0,0
23.05.2018 20:00:00 14,8 2,3 18 10 25 14 NE 1028,6 45 0,0
23.05.2018 19:00:00 16,1 3,8 18 10 25 14 NNE 1027,9 40 0,0
23.05.2018 18:00:00 17,0 4,3 18 10 32 18 NE 1027,6 40 0,0
23.05.2018 17:00:00 17,0 4,0 22 12 32 18 NNE 1027,5 40 0,0
23.05.2018 16:00:00 17,1 4,7 25 14 32 18 NNE 1027,3 35 0,0
23.05.2018 15:00:00 16,9 5,2 22 12 32 18 NNE 1027,0 35 0,0
23.05.2018 14:00:00 16,5 6,0 22 12 36 19 N 1026,5 40 0,0
23.05.2018 13:00:00 15,9 6,1 22 12 36 19 N 1025,9 35 0,0
23.05.2018 12:00:00 15,4 6,1 22 12 36 19 N 1025,2 35 0,0
23.05.2018 11:00:00 14,9 6,7 22 12 43 23 N 1024,6 30 0,0
23.05.2018 10:00:00 14,2 7,3 32 18 40 21 N 1024,1 35 0,0
23.05.2018 09:00:00 14,3 7,4 25 14 40 21 N 1023,0 30 0,0
23.05.2018 08:00:00 14,2 7,7 22 12 32 18 N 1022,2 30 0,0
23.05.2018 07:00:00 13,6 7,6 22 12 40 21 N 1021,7 35 0,0
23.05.2018 06:00:00 13,5 7,9 18 10 32 18 N 1021,0 30 0,0
23.05.2018 05:00:00 9,9 6,2 11 6 18 10 NNW 1019,9 45 0,0
23.05.2018 04:00:00 9,9 5,9 7 4 11 6 NNW 1019,3 45 0,0
23.05.2018 03:00:00 12,2 5,4 4 2 11 6 SSE 1018,7 45 0,0
23.05.2018 02:00:00 10,9 5,2 7 4 11 6 SW 1018,6 45 0,0
23.05.2018 01:00:00 13,6 5,5 7 4 14 8 SW 1018,3 45 0,0
23.05.2018 00:00:00 14,8 5,3 11 6 14 8 SW 1018,2 50 0,0
22.05.2018 23:00:00 16,1 5,4 11 6 18 10 SSW 1017,9 45 0,0
22.05.2018 22:00:00 17,1 5,1 11 6 18 10 S 1017,9 50 0,0
22.05.2018 21:00:00 19,3 5,7 11 6 22 12 SSW 1017,5 45 0,0
22.05.2018 20:00:00 21,7 5,6 7 4 18 10 SW 1017,2 40 0,0
22.05.2018 19:00:00 22,9 5,3 11 6 22 12 SSW 1017,4 40 0,0
22.05.2018 18:00:00 23,3 5,2 11 6 22 12 SSW 1017,5 35 0,0
22.05.2018 17:00:00 23,3 4,3 11 6 29 16 SSW 1018,0 40 0,0
22.05.2018 16:00:00 23,6 5,0 18 10 29 16 S 1018,4 35 0,0
22.05.2018 15:00:00 23,4 5,3 14 8 32 18 SSW 1018,9 35 0,0
22.05.2018 14:00:00 23,1 4,6 14 8 29 16 S 1019,3 35 0,0
22.05.2018 13:00:00 22,4 4,0 11 6 22 12 SSE 1019,8 35 0,0
22.05.2018 12:00:00 21,2 4,7 11 6 18 10 S 1020,5 35 0,0
22.05.2018 11:00:00 20,2 6,5 11 6 22 12 SSE 1021,3 35 0,0
22.05.2018 10:00:00 18,1 7,2 11 6 18 10 SSE 1021,6 30 0,0
22.05.2018 09:00:00 16,7 7,9 7 4 14 8 S 1022,0 30 0,0
22.05.2018 08:00:00 15,2 8,2 11 6 14 8 SSE 1022,4 30 0,0
22.05.2018 07:00:00 13,4 8,0 7 4 11 6 SE 1022,5 35 0,0
22.05.2018 06:00:00 11,1 6,8 4 2 7 4 SSE 1022,7 35 0,0
22.05.2018 05:00:00 8,1 5,6 4 2 7 4 SSE 1022,9 35 0,0
22.05.2018 04:00:00 8,0 5,6 4 2 4 2 E 1023,0 45 0,0
22.05.2018 03:00:00 10,1 6,3 4 2 7 4 S 1023,4 45 0,0
22.05.2018 02:00:00 12,7 6,3 7 4 7 4 SSE 1023,5 45 0,0
22.05.2018 01:00:00 14,3 6,4 4 2 11 6 SSE 1023,6 50 0,0
22.05.2018 00:00:00 14,9 6,5 4 2 11 6 SSE 1024,0 45 0,0
21.05.2018 23:00:00 15,8 6,8 7 4 14 8 S 1023,9 45 0,0
21.05.2018 22:00:00 17,6 7,3 11 6 18 10 S 1024,1 45 0,0
21.05.2018 21:00:00 20,1 7,1 11 6 14 8 S 1024,0 40 0,0
21.05.2018 20:00:00 22,2 6,8 11 6 22 12 SW 1023,8 45 0,0
21.05.2018 19:00:00 23,4 6,6 14 8 25 14 SW 1023,8 40 0,0
21.05.2018 18:00:00 24,0 5,8 18 10 29 16 SW 1024,0 40 0,0
21.05.2018 17:00:00 24,4 5,7 18 10 29 16 SW 1024,5 35 0,0
21.05.2018 16:00:00 24,1 6,8 18 10 36 19 SW 1025,0 35 0,0
21.05.2018 15:00:00 24,0 7,2 25 14 40 21 SSW 1025,4 40 0,0
21.05.2018 14:00:00 23,8 6,6 22 12 36 19 SSW 1025,8 35 0,0
21.05.2018 13:00:00 23,4 6,6 18 10 32 18 WSW 1026,2 30 0,0
21.05.2018 12:00:00 23,0 5,0 22 12 32 18 W 1026,5 40 0,0
21.05.2018 11:00:00 22,4 5,8 25 14 40 21 WSW 1026,9 35 0,0
21.05.2018 10:00:00 21,4 6,5 22 12 29 16 WSW 1027,1 40 0,0
21.05.2018 09:00:00 18,9 7,6 18 10 22 12 WSW 1027,5 35 0,0
21.05.2018 08:00:00 16,4 8,4 11 6 22 12 SW 1027,6 35 0,0
21.05.2018 07:00:00 14,7 7,7 14 8 22 12 SW 1027,6 40 0,0
21.05.2018 06:00:00 13,0 6,8 14 8 22 12 SSW 1027,2 45 0,0
21.05.2018 05:00:00 11,4 5,5 0 0 7 4 N 1026,8 45 0,0
21.05.2018 04:00:00 10,8 4,0 4 2 7 4 S 1026,5 45 0,0
21.05.2018 03:00:00 12,8 4,0 4 2 14 8 S 1026,3 40 0,0
21.05.2018 02:00:00 13,1 4,3 11 6 14 8 SW 1026,0 45 0,0
21.05.2018 01:00:00 13,4 3,7 14 8 14 8 WSW 1025,7 45 0,0
21.05.2018 00:00:00 14,4 3,2 11 6 14 8 WSW 1025,5 50 0,0
20.05.2018 23:00:00 15,6 2,4 7 4 14 8 SW 1025,3 45 0,0
20.05.2018 22:00:00 18,0 2,7 11 6 18 10 SW 1025,2 45 0,0
20.05.2018 21:00:00 19,5 3,2 11 6 22 12 SW 1024,8 45 0,0
20.05.2018 20:00:00 21,5 3,7 18 10 29 16 SW 1024,3 45 0,0
20.05.2018 19:00:00 22,9 3,9 18 10 32 18 SW 1024,0 45 0,0
20.05.2018 18:00:00 23,5 4,9 22 12 36 19 SW 1023,9 35 0,0
20.05.2018 17:00:00 23,9 5,7 22 12 40 21 SW 1024,4 40 0,0
20.05.2018 16:00:00 23,8 5,7 22 12 32 18 SW 1024,5 35 0,0
20.05.2018 15:00:00 24,0 5,4 18 10 36 19 WSW 1024,8 45 0,0
20.05.2018 14:00:00 23,8 5,2 18 10 36 19 WSW 1025,1 35 0,0
20.05.2018 13:00:00 23,0 4,5 22 12 40 21 WSW 1025,2 40 0,0
20.05.2018 12:00:00 22,9 3,4 25 14 40 21 WSW 1025,4 40 0,0
20.05.2018 11:00:00 22,0 4,1 22 12 36 19 WSW 1025,4 35 0,0
20.05.2018 10:00:00 20,5 5,3 18 10 29 16 SW 1025,5 40 0,0
20.05.2018 09:00:00 19,0 5,8 14 8 22 12 WSW 1025,7 40 0,0
20.05.2018 08:00:00 16,3 5,3 11 6 14 8 WSW 1025,8 40 0,0
20.05.2018 07:00:00 13,9 5,0 7 4 11 6 SSW 1025,2 45 0,0
20.05.2018 06:00:00 12,5 4,0 4 2 11 6 S 1025,0 45 0,0
20.05.2018 05:00:00 11,6 3,6 0 0 7 4 N 1024,5 45 0,0
20.05.2018 04:00:00 11,2 4,0 0 0 14 8 N 1024,0 45 0,0
20.05.2018 03:00:00 11,1 3,9 7 4 14 8 SW 1023,4 45 0,0
20.05.2018 02:00:00 11,7 4,0 7 4 18 10 SW 1023,0 50 0,0
20.05.2018 01:00:00 12,4 4,4 14 8 22 12 SW 1022,8 45 0,0
20.05.2018 00:00:00 13,0 4,4 14 8 18 10 SW 1022,7 50 0,0
19.05.2018 23:00:00 13,8 4,1 11 6 22 12 SW 1022,3 50 0,0
19.05.2018 22:00:00 15,2 4,0 18 10 22 12 SSW 1021,9 45 0,0
19.05.2018 21:00:00 17,2 3,8 14 8 25 14 SSW 1021,5 45 0,0
19.05.2018 20:00:00 19,5 3,6 11 6 25 14 SW 1021,1 40 0,0
19.05.2018 19:00:00 20,3 3,5 18 10 25 14 SW 1021,0 45 0,0
19.05.2018 18:00:00 21,5 4,1 18 10 25 14 SSW 1021,1 40 0,0
19.05.2018 17:00:00 21,4 3,6 11 6 25 14 SW 1021,4 35 0,0
19.05.2018 16:00:00 21,3 2,5 11 6 22 12 WNW 1021,6 40 0,0
19.05.2018 15:00:00 20,9 2,7 11 6 18 10 WSW 1021,7 35 0,0
19.05.2018 14:00:00 19,9 2,3 7 4 18 10 NNE 1022,2 35 0,0
19.05.2018 13:00:00 19,3 2,2 7 4 18 10 NNW 1022,5 35 0,0
19.05.2018 12:00:00 18,8 2,6 4 2 18 10 ESE 1022,9 35 0,0
19.05.2018 11:00:00 17,5 1,9 7 4 14 8 N 1023,2 35 0,0
19.05.2018 10:00:00 16,5 1,8 7 4 14 8 NW 1023,4 40 0,0
19.05.2018 09:00:00 15,5 2,0 4 2 11 6 NW 1023,3 40 0,0
19.05.2018 08:00:00 12,8 4,0 7 4 11 6 WNW 1023,4 45 0,0
19.05.2018 07:00:00 8,3 3,5 4 2 4 2 WNW 1023,1 45 0,0
19.05.2018 06:00:00 2,9 0,6 0 0 4 2 N 1022,9 40 0,0
19.05.2018 05:00:00 1,5 0,5 0 0 4 2 N 1022,6 50 0,0
19.05.2018 04:00:00 0,7 -0,5 0 0 7 4 N 1022,5 50 0,0
19.05.2018 03:00:00 1,5 0,3 4 2 7 4 WNW 1022,3 50 0,0
19.05.2018 02:00:00 1,9 0,4 7 4 7 4 W 1022,0 50 0,0
19.05.2018 01:00:00 2,9 1,3 0 0 4 2 N 1021,9 50 0,0
19.05.2018 00:00:00 4,3 1,2 4 2 7 4 WNW 1021,7 50 0,0
18.05.2018 23:00:00 5,4 2,7 0 0 7 4 N 1021,6 50 0,0
18.05.2018 22:00:00 7,8 1,4 4 2 11 6 W 1021,3 45 0,0
18.05.2018 21:00:00 11,7 0,8 7 4 22 12 NNE 1021,0 45 0,0
18.05.2018 20:00:00 14,0 0,6 18 10 25 14 NE 1020,3 45 0,0
18.05.2018 19:00:00 15,3 1,1 18 10 36 19 NE 1020,0 40 0,0
18.05.2018 18:00:00 15,6 1,7 22 12 36 19 N 1019,8 45 0,0
18.05.2018 17:00:00 15,8 1,1 22 12 36 19 NNE 1019,7 40 0,0
18.05.2018 16:00:00 15,7 1,0 22 12 40 21 NNE 1020,0 40 0,0
18.05.2018 15:00:00 15,3 -0,5 25 14 40 21 N 1019,9 40 0,0
18.05.2018 14:00:00 14,8 -0,9 25 14 43 23 NNE 1020,0 40 0,0
18.05.2018 13:00:00 14,2 -0,7 29 16 40 21 N 1019,9 30 0,0
18.05.2018 12:00:00 13,8 0,4 22 12 40 21 N 1020,0 35 0,0
18.05.2018 11:00:00 12,9 0,9 25 14 43 23 N 1020,1 35 0,0
18.05.2018 10:00:00 12,8 0,2 25 14 40 21 NNE 1019,9 45 0,0
18.05.2018 09:00:00 11,8 -1,0 32 18 43 23 NNE 1019,6 30 0,0
18.05.2018 08:00:00 11,2 0,0 32 18 43 23 NNE 1019,0 35 0,0
18.05.2018 07:00:00 10,2 0,5 22 12 40 21 N 1018,6 35 0,0
18.05.2018 06:00:00 9,3 1,9 22 12 40 21 N 1018,2 40 0,0
18.05.2018 05:00:00 8,2 3,8 14 8 18 10 NNW 1017,8 45 0,0
18.05.2018 04:00:00 7,7 2,4 14 8 22 12 NNW 1017,6 45 0,0
18.05.2018 03:00:00 8,8 1,7 11 6 25 14 NNW 1017,6 50 0,0
18.05.2018 02:00:00 9,5 2,4 14 8 25 14 N 1017,2 50 0,0
18.05.2018 01:00:00 9,1 1,3 14 8 22 12 N 1017,5 50 0,0
18.05.2018 00:00:00 9,5 1,4 18 10 22 12 N 1017,8 50 0,0
17.05.2018 23:00:00 9,8 1,2 14 8 22 12 N 1017,6 45 0,0
17.05.2018 22:00:00 9,6 1,2 14 8 25 14 NNW 1017,6 50 0,0

tt = Température de l'air
td = dewpoint
ff = Vitesse du vent
fx = gusts
dd = Direction du vent
ppp = reduced air pressure
vv = visibility
rr = Quantités de précipitations

stations d'obs. à proximité